Regional Weather Roundup
Issued by NWS Newport/Morehead, NC

Current Version | Previous Version | Text Only | Print | Product List | Glossary On
Versions: 1 2 3 4 5 6 7 8 9 10 11 12 13 14 15 16 17 18 19 20 21 22 23 24 25 26 27 28 29 30 31 32 33 34 35 36 37 38 39 40 41 42 43 44 45 46 47 48 49 50
000
ASUS42 KMHX 241014
RWRMHX
WEATHER ROUNDUP FOR EASTERN NORTH CAROLINA
NATIONAL WEATHER SERVICE NEWPORT/MOREHEAD CITY NC
600 AM EDT TUE APR 24 2018

NOTE: "FAIR" INDICATES FEW OR NO CLOUDS BELOW 12,000 FEET
WITH NO SIGNIFICANT WEATHER AND/OR OBSTRUCTIONS TO VISIBILITY

NCZ015>017-031-032-045>047-102-103-241100-
NORTH COAST

CITY           SKY/WX    TMP DP  RH WIND       PRES   REMARKS
EDENTON        DRIZZLE   61  58  88 E12       30.16S
ELIZABETH CITY LGT RAIN  60  55  83 E15       30.18F
KITTY HAWK     LGT RAIN  56  52  86 E9G18     30.17F
MANTEO         CLOUDY    58  54  85 SE14      30.18F

$$

NCZ045>047-081-094-103-104-241100-
CENTRAL COAST

CITY           SKY/WX    TMP DP  RH WIND       PRES   REMARKS
FRISCO         LGT RAIN  64  61  90 SE21G28   30.15F

$$

NCZ095-097-098-100-101-241100-
SOUTHERN COAST

CITY           SKY/WX    TMP DP  RH WIND       PRES   REMARKS
BEAUFORT       RAIN      63  61  93 SE15G23   30.09F
CEDAR ISLAND   NOT AVBL
JACKSONVILLE   RAIN      63  62  97 E20G28    30.04F FOG
PINEY ISLAND   NOT AVBL
WILMINGTON     HVY RAIN  63  61  93 E10G21    30.00F FOG


$$

NCZ011>013-027>030-043-044-078>080-089-090>093-098-241100-
COASTAL PLAIN

CITY           SKY/WX    TMP DP  RH WIND       PRES   REMARKS
AHOSKIE        RAIN      55  54  98 NE3       30.14F
CLINTON        CLOUDY    60  60 100 E5G17     30.02F
ELIZABETHTOWN  RAIN      61  61  97 MISG      29.97F FOG
GOLDSBORO      LGT RAIN  61  59  94 E15       30.05S FOG
GREENVILLE     LGT RAIN  59  59 100 E5        30.11F
HAVELOCK       RAIN      64  63  96 SE17G26   30.09F FOG
KENANSVILLE    RAIN      61  59  94 E9        30.04F FOG
KINSTON        LGT RAIN  61  60  96 E9        30.08F
NEW BERN       RAIN      61  60  97 SE8       30.10F FOG
RICHLANDS      LGT RAIN  62  61  96 E13G23    30.06F FOG
ROCKY MOUNT    LGT RAIN  57  56  96 E6        30.10S FOG
WASHINGTON     LGT RAIN  61  60  95 E12       30.11F
WHITEVILLE     RAIN      63  62  95 E22G32    29.92F

$$

AMZ130-135-150-152-154-156-158-170-250-252-270-ANZ085-086-088-633-658-670-241100-
MARINE OBSERVATIONS

STATION/POSITION TIME  TEMP    WIND        PRES    WAVE   SWELL
                       AIR SEA DIR/SP/G            HT/PER HT/PER
                 (UTC) (F)     (DEG/KT/KT) (MB)    (FT/S) (FT/S)
CHESAPEAKE LIGHT NOT AVBL
64 E VA BEACH    0950   55 50  110/ 16/ 17 1024.5    7/ 7   3/14
DUCK             0936   56 54  100/ 19/ 21 1021.8
2 E DUCK         1000      53                N/A     5/ 7
OREGON INLET     0936   56 58   80/ 10/ 14 1021.8
13E OREGON INLT  0948      52                N/A     7/ 8   7/ 8
HATTERAS CG      0936   65 62  120/ 15/ 22 1020.3
DIAMOND BUOY     1000   68 72  120/ 25/ 33 1020.8
CAPE LOOKOUT     1000          110/ 24/ 26 1018.8
BEAUFORT LAB     0936   63 62  120/ 22/ 27 1018.8
30 SE NEW RVR IN 0908   66 65  120/ 23/ 31 1016.9
30 SE NEW RVR IN 1000      65                N/A    13/ 8   2/11
27 SE WRIGHTSVLE 0908   65 65  150/ 25/ 35 1015.1
5 SE WRIGHTSVLE  0908   63 61  130/ 17/ 25 1015.1
225 S CAPE HAT   1000   68 72  110/ 27/ 33 1019.0
41 SE CHARLESTON 0950      68  180/ 21/ 29 1011.3   13/11  10/11

$$




USA.gov is the U.S. government's official web portal to all federal, state and local government web resources and services.